Location: Baili�vre
(50.0696°N, 4.2409°E)
Time: 10:42:38
(UTC+00:00)

SL-16 R/B - Pass Details

Date: 08 August 2020
Orbit: 840 x 849 km, 71.0° (Epoch: 20 September)

Event Time Altitude Azimuth Distance (km) Brightness Sun altitude
Rises 23:45:43 0° 333° (NNW) 3,425 6.4 -24.1°
Reaches altitude 10° 23:48:38 10° 347° (NNW) 2,486 5.7 -24.2°
Maximum altitude 23:53:18 25° 41° (NE) 1,655 4.2 -24.1°
Drops below altitude 10° 23:57:56 10° 96° (E) 2,475 4.6 -24.1°
Enters shadow 00:00:13 - 107° (ESE) 3,203 5.1 -24.1°
